Terug naar catalogus

STARLINK-1871

ActiefCommunicatieVLEO
NORAD 47157·PAYLOAD·🇺🇸 United States

Gelanceerd Nov 25, 2020 vanaf Cape Canaveral Space Force Station

Loading…

Volgende Passages (komende 24 uur)

TLE

VersSource: CelesTrak SupGP

Epoch: Sep 14, 2026, 21:07 UTC

1 47157C 20088AM  26257.88034722 -.00008251  00000+0 -17125-3 0  2571
2 47157  53.1513 128.8806 0001993 127.7625  18.7033 15.45112938    11

Volg STARLINK-1871 in realtime met AllMySat

Download on the App Store